Home > Weather > Medicine Hat > Past weeks

Flag for Canada Past Weather in Medicine Hat, Alberta, Canada — Yesterday and Last 2 Weeks

Now
64 °F

Broken clouds.


Feels Like: 64 °F
Forecast: 56 / 85 °F
Wind: 2 mph from Northeast

Location: Medicine Hat

Current Time: Jun 28, 2016 at 9:11:43 AM

Latest Report: Jun 28, 2016 at 8:00 AM


Visibility: 30 mi

Pressure: 30.14 "Hg (27.89 "Hg at 661m altitude)

Humidity: 73%

Dew Point: 55 °F

Location of Medicine HatLocation

Past Weather in Medicine Hat — Graph

°F

Medicine Hat Temperature Yesterday

Maximum temperature yesterday: 79 °F (at 4:00 PM)
Minimum temperature yesterday: 48 °F (at 5:00 AM)
Average temperature yesterday: 65 °F

High & Low Weather Summary for the Past Weeks

 TemperatureHumidityPressure
High81 °F (Jun 20, 4:00 PM)100% (Jun 22, 2:00 AM)30.31 "Hg (Jun 22, 2:00 AM)
Low45 °F (Jun 15, 3:00 AM)18% (Jun 20, 4:00 PM)29.60 "Hg (Jun 14, 3:00 PM)
Average62 °F59%29.95 "Hg
* Reported Jun 13 7:00 AM — Jun 28 7:00 AM, Medicine Hat, Weather by CustomWeather, © 2016

Note: Actual official high and low records may vary slightly from our data, if they occured in-between our weather recording intervals... More about our weather records

Advertising

Medicine Hat Weather History for the Previous 24 Hours

Scroll right to see more
 ConditionsComfort  
Time TempWeatherWind HumidityBarometerVisibility
7:00 AM
Tue, Jun 28
59 °FScattered clouds.3 mph77%30.16 "Hg30 mi
6:00 AM57 °FClear.3 mph82%30.16 "Hg9 mi
5:00 AM55 °FClear.3 mph82%30.16 "Hg9 mi
4:00 AM57 °FClear.7 mph82%30.16 "Hg9 mi
3:00 AM57 °FClear.8 mph82%30.17 "Hg9 mi
2:00 AM59 °FClear.8 mph82%30.17 "Hg9 mi
1:00 AM61 °FClear.6 mph77%30.17 "Hg9 mi
12:00 AM63 °FClear.6 mph77%30.18 "Hg9 mi
11:00 PM
Mon, Jun 27
66 °FClear.5 mph73%30.18 "Hg9 mi
10:00 PM70 °FSunny.8 mph60%30.18 "Hg9 mi
9:00 PM73 °FPassing clouds.7 mph47%30.18 "Hg30 mi
8:00 PM77 °FPassing clouds.6 mph42%30.19 "Hg30 mi
7:00 PM79 °FPassing clouds.2 mph37%30.20 "Hg30 mi
6:00 PM79 °FPassing clouds.3 mph34%30.22 "Hg30 mi
5:00 PM77 °FScattered clouds.3 mph36%30.23 "Hg30 mi
4:00 PM79 °FScattered clouds.7 mph37%30.24 "Hg30 mi
3:00 PM77 °FScattered clouds.3 mph42%30.25 "Hg30 mi
2:00 PM77 °FPassing clouds.6 mph36%30.26 "Hg30 mi
1:00 PM75 °FPassing clouds.7 mph41%30.28 "Hg30 mi
12:00 PM73 °FPassing clouds.3 mph38%30.29 "Hg30 mi
11:00 AM72 °FPassing clouds.3 mph53%30.29 "Hg40 mi
10:00 AM68 °FPassing clouds.3 mph64%30.30 "Hg30 mi
9:00 AM63 °FSunny.3 mph73%30.31 "Hg30 mi
Weather by CustomWeather, © 2016

See weather overviewHow to use our weather pages